Location: Brompton
(51.4000°N, 0.5333°E)
Time: 11:53:58
(UTC+00:00)

Cosmos 1898 Rocket - Pass Details

Date: 03 October 2021
Orbit: 752 x 784 km, 74.0° (Epoch: 17 October)

Event Time Altitude Azimuth Distance (km) Brightness Sun altitude
Rises 05:04:50 0° 333° (NNW) 3,275 6.5 -9.7°
Reaches altitude 10° 05:07:14 10° 330° (NNW) 2,346 5.8 -9.3°
Maximum altitude 05:12:29 61° 251° (WSW) 890 3.6 -8.5°
Drops below altitude 10° 05:17:43 10° 172° (S) 2,338 6.1 -7.7°
Sets 05:20:07 0° 169° (S) 3,262 6.9 -7.3°
